"Pseudo-MPEC" for P11dmsA
Created 2021 Mar 4 16:07:11 UT using Find_Orb
Click here for an explanation of pseudo-MPECs
Astrometry: P11dmsA C2021 02 16OYJuXd`QEoU2.BgPd8B
AstrometryX^v;M2A):\d
redacted;Doi
F51 P11dmsA C2021 02 16?'SYXx)3d7U+g
clicks
hereCdQ\:GbgY^pNt5ri$kK1$)c-=MEL2
F51 P11dmsA C2021 02 16fFV*wlDxT12
forl\`@
explanationqXdO#5`'#55P4bTbL_9)8so
F51 Station data: (F51) Pan-STARRS 1, Haleakala (N20.707235 W156.255910) US/Hawaii. Observers N. Primak, A. Schultz, S. Watters, J. Thiel, T. Goggia. Measurer PS1 Science Consortium. 1.8-m Ritchey-Chrétien + CCD. Orbital elements: P11dmsA Perihelion 2021 Apr 10.952588 +/- 78.3124 TT = 22:51:43 (JD 2459315.452588) Epoch 2021 Feb 16.0 TT = JDT 2459261.5 Earth MOID: 0.4970 Ma: 0.0311 M 338.60296813 +/- 33.347415 (J2000 ecliptic) AutoNEOCP n 0.39658953 +/- 0.355083 Peri. 291.90174 +/- 100.84072 a 1.83474288 +/- 1.09513 Node 236.42950 +/- 36.677647 e 0.2476214 +/- 0.270665 Incl. 23.46906 +/- 12.792651 P 2.49/907.72d H 19.8 G 0.15 U 12.0 SR q 1.38042111 +/- 0.902514 Q 2.28906466 +/- 129.241 From 3 observations 2021 Feb. 16 (32.1 min); mean residual 0".07
Residuals in arcseconds: 210216 F51 .06- .04- 210216 F51 .12+ .08+ 210216 F51 .06- .04- Ephemerides (geocentric): Date (UTC) HH RA Dec delta r elong mag " sig PA ---- -- -- -- ------------- ----------- ------ ------ ----- --- ---- --- 2021 03 04 16 06 26 06.103 -24 29 16.87 .75592 1.4066 106.4 21.6 9193 146 2021 03 04 17 06 26 08.749 -24 28 48.83 .75601 1.4065 106.4 21.6 9296 146 2021 03 04 18 06 26 11.400 -24 28 20.77 .75610 1.4065 106.4 21.6 9402 146 2021 03 04 19 06 26 14.056 -24 27 52.70 .75619 1.4064 106.4 21.6 9510 145 2021 03 04 20 06 26 16.717 -24 27 24.60 .75628 1.4063 106.4 21.6 9620 145 2021 03 04 21 06 26 19.384 -24 26 56.49 .75637 1.4063 106.3 21.6 9732 145 2021 03 04 22 06 26 22.056 -24 26 28.35 .75646 1.4062 106.3 21.6 9846 145 2021 03 04 23 06 26 24.733 -24 26 00.20 .75655 1.4062 106.3 21.6 9962 145 2021 03 05 00 06 26 27.416 -24 25 32.02 .75664 1.4061 106.3 21.6 168' 145 2021 03 05 01 06 26 30.104 -24 25 03.83 .75673 1.4061 106.3 21.6 170' 145 2021 03 05 02 06 26 32.797 -24 24 35.62 .75682 1.4060 106.3 21.6 172' 145 2021 03 05 03 06 26 35.495 -24 24 07.38 .75691 1.4059 106.2 21.6 174' 144 2021 03 05 04 06 26 38.199 -24 23 39.13 .75700 1.4059 106.2 21.6 176' 144 2021 03 05 05 06 26 40.908 -24 23 10.86 .75709 1.4058 106.2 21.6 178' 144 2021 03 05 06 06 26 43.622 -24 22 42.57 .75718 1.4058 106.2 21.6 181' 144 2021 03 05 07 06 26 46.342 -24 22 14.26 .75727 1.4057 106.2 21.6 183' 144 2021 03 05 08 06 26 49.067 -24 21 45.93 .75736 1.4057 106.2 21.6 185' 144 2021 03 05 09 06 26 51.796 -24 21 17.59 .75745 1.4056 106.2 21.6 188' 144 2021 03 05 10 06 26 54.532 -24 20 49.22 .75754 1.4055 106.1 21.6 190' 144 2021 03 05 11 06 26 57.272 -24 20 20.83 .75763 1.4055 106.1 21.6 193' 143 2021 03 05 12 06 27 00.018 -24 19 52.43 .75772 1.4054 106.1 21.6 195' 143 2021 03 05 13 06 27 02.769 -24 19 24.00 .75781 1.4054 106.1 21.6 198' 143 2021 03 05 14 06 27 05.525 -24 18 55.56 .75790 1.4053 106.1 21.6 200' 143 2021 03 05 15 06 27 08.287 -24 18 27.10 .75799 1.4053 106.1 21.6 203' 143 2021 03 05 16 06 27 11.053 -24 17 58.62 .75808 1.4052 106.1 21.6 206' 143 2021 03 05 17 06 27 13.825 -24 17 30.12 .75817 1.4052 106.0 21.6 208' 143 2021 03 05 18 06 27 16.603 -24 17 01.60 .75826 1.4051 106.0 21.6 211' 143 2021 03 05 19 06 27 19.385 -24 16 33.06 .75835 1.4050 106.0 21.6 214' 142 2021 03 05 20 06 27 22.173 -24 16 04.51 .75844 1.4050 106.0 21.6 217' 142 2021 03 05 21 06 27 24.966 -24 15 35.93 .75853 1.4049 106.0 21.6 220' 142 2021 03 05 22 06 27 27.764 -24 15 07.34 .75862 1.4049 106.0 21.6 223' 142 2021 03 05 23 06 27 30.567 -24 14 38.73 .75871 1.4048 106.0 21.6 226' 142 2021 03 06 00 06 27 33.376 -24 14 10.10 .75880 1.4048 105.9 21.6 230' 142 2021 03 06 01 06 27 36.190 -24 13 41.45 .75889 1.4047 105.9 21.6 233' 142 2021 03 06 02 06 27 39.009 -24 13 12.78 .75898 1.4047 105.9 21.6 236' 142 2021 03 06 03 06 27 41.833 -24 12 44.10 .75907 1.4046 105.9 21.6 240' 142 2021 03 06 04 06 27 44.663 -24 12 15.39 .75916 1.4045 105.9 21.6 243' 141 2021 03 06 05 06 27 47.497 -24 11 46.67 .75925 1.4045 105.9 21.6 247' 141 2021 03 06 06 06 27 50.337 -24 11 17.93 .75934 1.4044 105.9 21.6 251' 141 2021 03 06 07 06 27 53.183 -24 10 49.17 .75943 1.4044 105.8 21.6 254' 141 2021 03 06 08 06 27 56.033 -24 10 20.39 .75952 1.4043 105.8 21.6 258' 141 2021 03 06 09 06 27 58.889 -24 09 51.60 .75961 1.4043 105.8 21.6 262' 141 2021 03 06 10 06 28 01.749 -24 09 22.78 .75970 1.4042 105.8 21.6 266' 141 2021 03 06 11 06 28 04.616 -24 08 53.95 .75979 1.4042 105.8 21.6 270' 141 2021 03 06 12 06 28 07.487 -24 08 25.10 .75988 1.4041 105.8 21.6 275' 141 2021 03 06 13 06 28 10.363 -24 07 56.23 .75997 1.4041 105.8 21.6 279' 140 2021 03 06 14 06 28 13.245 -24 07 27.34 .76006 1.4040 105.7 21.6 283' 140 2021 03 06 15 06 28 16.132 -24 06 58.44 .76015 1.4039 105.7 21.6 288' 140